Temperature
18 18 18 18 18 18 18 18 18 18 18 18 18 18 18 18 18 18 18 18 18 18 18 18 18 18 18 18 18 18 18 18 18 18 18 18 18 18 18 17 18 17 17
19 18 18 18 18 18 18 18 18 18 18 18 18 18 18 18 18 18 18 18 18 18 18 18 18 18 18 18 18 18 18 18 18 18 18 17 17 17 17 17 18 17 17
19 18 18 18 18 18 18 18 18 18 18 18 18 18 18 18 18 18 18 18 18 18 18 18 18 18 18 18 18 18 18 18 18 18 17 17 17 17 17 17 17 17 17
19 18 18 18 18 18 18 18 18 18 18 18 18 18 18 18 18 18 18 18 18 18 18 18 18 18 18 18 18 18 18 18 17 17 17 17 17 17 17 17 17 17 17
19 18 18 18 18 18 18 18 18 18 18 18 18 18 18 18 18 18 18 18 18 18 18 18 18 18 18 18 18 18 18 17 17 17 17 17 17 17 17 17 17 17 17
19 18 18 18 18 18 18 18 18 18 18 18 18 18 18 18 18 18 18 18 18 18 18 18 18 18 18 18 17 18 18 18 17 17 17 17 17 17 17 17 17 17 17
19 18 18 18 18 18 18 18 18 18 18 18 18 18 18 18 18 18 18 18 18 18 18 18 18 18 17 17 17 17 17 17 17 17 17 17 17 17 17 17 17 17 17
19 18 18 18 18 18 18 18 18 18 18 18 18 18 18 18 17 18 17 17 17 17 18 18 17 17 17 17 17 17 17 17 17 17 17 17 17 17 17 17 17 17 17
18 18 18 18 18 18 18 18 18 18 18 18 18 18 18 18 17 17 17 17 17 17 17 18 17 17 17 17 17 17 17 17 17 17 17 17 17 17 17 17 17 17 17
18 18 18 18 18 18 18 18 18 18 18 18 18 18 18 18 17 17 17 17 17 17 17 17 17 17 17 17 17 17 17 17 17 17 17 17 17 17 17 17 17 17 17
18 18 18 18 18 18 18 18 18 18 18 18 18 17 17 17 17 17 17 17 17 17 17 17 17 17 17 17 17 17 17 17 17 17 17 17 17 17 17 17 17 17 17
18 18 18 18 18 18 18 18 18 18 18 18 18 17 17 17 17 17 17 17 17 17 17 17 17 17 17 17 17 17 17 17 17 17 17 17 17 17 17 17 17 17 17
19 18 18 18 18 18 18 18 18 18 18 17 17 17 17 17 18 17 17 17 17 17 17 17 17 17 17 17 17 17 17 17 17 17 17 17 17 17 17 17 17 17 17
19 18 18 18 18 18 18 18 18 18 18 17 17 17 17 17 17 17 17 17 17 17 17 17 17 17 17 17 17 17 17 17 17 17 17 17 17 17 17 17 17 17 17
19 19 18 18 18 18 18 18 18 17 17 17 17 17 17 17 17 17 17 17 17 17 17 17 17 17 17 17 17 17 17 17 17 17 17 17 17 17 17 17 17 17 17
19 19 18 18 18 18 18 18 17 17 17 17 17 17 17 17 17 17 17 17 17 17 17 17 17 17 17 17 17 17 17 17 17 17 17 17 17 17 17 17 17 17 17
19 19 18 18 18 18 18 18 18 17 17 17 17 17 17 17 17 17 17 17 17 17 17 17 17 17 17 17 17 17 17 17 17 17 17 17 17 17 17 17 17 17 17
19 19 18 18 18 18 18 18 18 17 17 17 17 17 17 17 17 17 17 17 17 17 17 17 17 17 17 17 17 17 17 17 17 17 17 17 17 17 17 17 17 17 16
19 19 19 18 18 18 18 18 17 17 17 17 17 17 17 17 17 17 17 17 17 17 17 17 17 17 17 17 17 17 17 17 17 17 17 17 17 17 17 17 17 16 16
19 19 19 18 18 18 18 18 17 17 17 17 17 17 17 17 17 17 17 17 17 17 17 17 17 17 17 17 17 17 17 17 17 17 17 17 17 17 17 16 16 16 16
19 19 19 18 18 18 18 18 18 18 17 18 18 17 17 17 17 17 17 17 17 17 17 17 17 17 17 17 17 17 17 17 17 17 17 17 17 17 16 16 16 16 16
19 19 19 18 18 18 18 18 18 18 18 18 18 18 17 17 17 17 17 17 17 17 17 17 17 17 17 17 17 17 16 17 16 17 17 17 17 16 16 16 16 16 16
20 19 19 19 18 18 18 18 18 18 18 18 18 18 18 17 17 18 17 17 17 17 17 17 17 17 17 17 17 17 17 16 16 16 16 17 16 16 16 16 16 16 16
20 20 19 19 19 18 18 18 18 18 18 18 18 18 18 18 18 18 18 17 17 17 17 17 17 17 17 17 17 17 17 16 16 16 16 16 16 16 16 16 16 16 16
21 20 20 19 19 19 18 18 18 18 18 18 18 18 18 18 18 18 18 18 17 17 17 17 17 17 17 17 17 17 17 16 16 16 16 16 16 16 16 16 16 16 16
21 20 20 19 19 19 19 18 18 18 18 18 18 18 18 18 18 18 18 18 18 17 17 17 17 17 17 17 17 17 17 16 17 16 16 16 16 16 16 16 16 16 16
Wind_Speed
1 2 1 3 5 6 8 9 10 10 11 12 12 11 11 12 14 14 15 15 16 17 17 18 18 19 19 20 20 20 19 20 20 21 20 20 19 18 18 18 17 16 18
2 1 2 3 5 6 8 9 10 10 11 11 11 11 11 12 13 14 14 15 16 17 18 17 18 19 19 19 19 19 19 19 19 19 19 19 18 18 18 17 16 15 18
2 1 3 4 5 7 8 9 9 10 11 11 11 11 11 12 13 14 14 15 17 16 17 17 18 19 19 19 18 19 19 19 18 18 18 15 16 17 16 16 16 16 16
3 2 3 5 6 7 8 9 9 9 10 10 10 10 12 12 13 13 14 15 16 16 18 18 18 19 19 18 18 18 18 18 18 17 13 13 13 16 16 15 15 15 15
3 3 4 6 6 7 7 8 9 9 9 10 10 11 12 12 12 13 14 15 16 16 17 17 17 17 17 17 17 17 17 16 16 14 12 12 12 15 15 15 14 14 14
3 3 4 6 6 6 7 7 8 9 10 10 10 11 12 12 12 13 14 15 15 15 15 16 17 16 16 16 16 16 16 15 14 12 11 11 11 14 14 14 14 13 14
3 3 3 5 5 6 7 7 7 9 9 9 9 10 11 11 12 13 14 14 14 14 14 16 16 15 15 15 15 14 15 15 13 11 10 10 10 13 13 13 13 13 12
3 3 3 5 6 6 6 6 8 9 9 9 9 9 10 10 11 13 14 14 14 13 15 15 15 15 13 13 14 13 13 13 12 10 9 9 11 13 12 12 12 12 12
3 3 3 3 4 6 6 7 8 8 8 8 8 9 10 11 11 12 13 13 13 13 14 15 15 14 12 12 12 12 11 12 10 9 9 9 11 12 12 12 11 11 11
3 3 2 3 4 4 5 6 7 8 7 7 7 8 9 10 11 12 12 12 12 12 13 13 13 12 11 10 10 10 11 11 9 9 8 9 11 11 11 11 11 11 11
2 2 2 3 3 3 4 5 6 6 6 6 6 8 8 8 8 9 10 11 11 11 11 11 11 10 9 8 7 8 8 7 8 7 7 9 10 10 10 10 11 10 10
2 0 1 2 2 2 3 4 4 5 5 5 5 6 6 7 7 8 8 9 10 9 9 9 9 8 6 5 5 6 5 7 7 6 7 9 10 10 10 10 10 10 10
3 2 1 1 2 2 2 3 3 4 4 4 5 6 6 6 6 6 5 5 6 7 5 6 6 5 4 4 4 4 5 5 5 5 7 9 9 9 9 9 9 9 9
3 3 2 2 2 2 2 2 2 2 2 2 3 5 5 4 4 3 3 4 4 4 4 4 3 4 4 4 4 4 4 4 4 5 7 9 9 9 9 8 8 9 9
4 4 3 3 3 3 3 2 2 2 2 2 3 4 5 4 3 3 3 3 3 3 3 3 3 3 3 3 3 3 4 5 4 5 6 8 8 8 8 8 8 8 8
5 4 4 4 4 4 3 2 2 2 2 2 2 3 5 4 4 3 2 2 2 2 2 3 3 3 3 3 3 3 3 4 4 4 5 6 7 7 7 8 8 7 7
5 5 5 5 4 4 3 3 2 2 3 2 3 4 5 5 4 4 3 2 2 3 3 3 3 3 3 3 3 2 2 3 3 3 4 5 5 6 7 7 8 8 7
5 5 5 5 5 4 3 3 2 3 3 2 3 3 4 5 6 4 3 2 2 3 3 3 3 3 3 3 3 2 2 2 2 3 3 3 4 4 5 6 7 8 7
7 6 5 4 5 5 4 3 2 2 2 3 3 3 4 5 6 5 3 2 3 3 2 3 3 3 3 3 3 2 1 1 0 2 2 3 3 3 4 4 6 7 7
6 6 5 5 5 5 3 3 2 2 1 2 2 3 4 5 6 5 3 3 4 3 3 3 4 3 3 3 3 2 2 1 0 1 2 3 3 4 4 3 4 4 5
6 5 5 5 5 5 3 3 2 2 1 1 2 3 4 5 6 5 3 3 3 3 3 4 4 4 3 3 3 2 2 2 1 0 1 2 2 3 3 3 3 3 3
7 6 6 6 6 5 4 3 2 2 2 2 1 2 3 4 5 5 4 3 3 3 4 4 4 3 2 2 2 2 1 2 2 1 0 1 2 2 2 3 3 3 3
8 8 7 6 5 5 5 4 3 3 2 1 1 1 2 4 4 5 5 4 4 4 4 4 4 4 3 1 1 2 2 2 1 1 1 1 1 1 2 2 3 4 3
9 8 7 6 6 5 5 5 5 4 3 3 2 2 2 3 4 4 5 5 4 4 4 4 4 3 4 3 1 1 1 3 2 0 1 1 0 1 1 2 2 3 3
9 8 7 6 5 5 6 6 6 4 3 2 2 2 1 1 2 3 4 4 4 4 4 4 4 4 3 3 3 2 1 1 1 2 1 1 1 1 1 2 2 2 3
7 7 7 6 5 5 6 6 6 6 4 3 3 3 2 1 1 3 4 4 4 4 4 4 4 5 4 4 3 3 3 3 3 3 2 2 2 1 1 1 2 3 4
Wind_Direction
257 256 213 92 84 86 91 91 95 97 99 101 102 105 107 111 118 125 127 128 129 128 129 130 133 133 133 132 130 130 129 128 128 129 128 127 127 125 123 121 118 117 118
183 200 140 105 100 96 96 96 98 98 100 101 102 106 106 110 118 122 125 126 127 127 128 129 131 130 130 129 129 129 129 129 130 130 129 128 127 125 124 122 121 122 122
114 139 131 110 104 103 102 100 100 100 100 100 100 104 108 111 117 121 122 123 125 124 127 127 128 129 128 128 129 129 130 131 129 127 124 124 126 126 125 124 124 125 124
121 125 128 112 106 106 106 102 101 103 103 101 98 101 112 115 119 120 120 121 126 124 123 124 126 127 127 128 129 129 131 131 129 126 120 124 127 128 127 126 126 126 126
112 126 131 111 105 108 107 107 105 105 102 101 99 104 113 117 118 119 120 121 124 125 124 125 126 126 126 127 128 129 131 131 129 122 120 122 126 131 129 130 130 129 129
113 121 127 113 107 109 115 111 110 108 106 101 100 105 110 115 117 118 120 121 123 123 123 124 127 126 126 128 130 131 132 130 126 120 121 124 129 134 134 134 134 133 133
96 98 119 112 109 114 116 117 116 111 111 107 104 104 106 110 115 118 120 121 120 119 122 122 123 123 125 129 130 129 131 132 127 124 125 130 136 137 139 140 140 139 138
93 85 100 107 106 114 116 118 118 116 117 115 109 104 101 105 113 116 119 119 120 119 122 124 123 124 125 130 132 132 132 131 128 129 133 139 144 143 145 146 145 144 142
82 72 67 79 95 111 107 111 118 116 114 111 107 102 99 98 112 118 118 119 120 120 122 122 124 126 123 127 133 132 130 133 130 134 140 146 151 151 152 152 150 150 149
75 64 58 60 69 87 105 109 114 115 116 114 110 102 99 102 108 116 114 117 117 116 119 123 126 126 124 124 128 133 132 131 132 139 145 154 157 158 156 155 156 155 154
93 45 57 63 69 79 99 107 104 100 100 105 109 107 99 95 101 109 112 116 117 116 120 123 121 121 119 119 124 127 124 130 134 143 150 159 162 164 162 160 159 159 158
177 156 63 84 90 96 101 91 88 88 86 86 94 100 96 94 97 103 112 119 121 118 116 114 113 111 108 107 108 108 117 131 136 147 158 162 165 167 165 162 163 165 163
181 180 144 133 129 126 96 94 88 92 94 92 91 99 100 92 91 89 91 102 108 110 102 101 100 97 98 100 100 105 120 128 137 150 158 167 171 174 174 171 173 173 174
169 191 177 159 145 134 121 106 104 100 103 105 108 115 115 102 90 90 92 91 93 93 88 86 88 87 91 94 105 117 129 142 147 154 166 177 183 184 180 178 181 182 184
177 187 180 170 161 145 132 138 124 130 128 125 127 135 132 122 112 106 103 101 97 103 99 98 92 84 84 89 97 112 126 139 149 161 174 182 186 184 183 183 186 186 187
190 190 180 175 172 152 146 149 153 156 144 138 146 146 143 143 137 127 115 109 109 119 118 113 102 95 90 94 88 93 114 129 138 154 166 176 180 182 185 187 190 189 191
192 185 179 177 167 160 157 164 160 162 150 153 157 152 149 152 154 149 136 132 139 130 118 109 99 98 101 101 94 97 112 129 136 150 158 171 181 188 193 199 199 200 201
175 173 178 172 160 162 159 161 157 158 154 163 156 153 157 159 157 150 147 155 150 128 120 118 111 101 94 98 92 79 89 110 138 156 164 172 177 190 202 210 210 210 212
173 170 167 160 156 160 157 151 147 149 157 169 163 164 166 160 158 151 152 156 144 128 125 129 111 114 110 101 87 72 75 99 139 166 175 189 193 198 207 216 216 220 223
167 165 161 157 153 147 137 122 115 117 130 154 169 179 172 168 161 154 151 147 138 125 123 123 119 110 117 113 92 65 42 36 73 178 209 200 204 210 216 219 219 225 227
157 161 164 159 158 145 134 143 147 161 162 157 182 179 173 170 162 157 152 146 143 145 149 142 128 123 120 115 98 64 31 35 55 248 210 201 209 209 203 209 213 216 228
170 171 169 170 168 166 164 155 151 143 151 160 163 157 172 173 171 166 159 155 147 142 141 147 142 136 145 139 128 112 41 8 20 36 90 194 206 192 201 208 196 195 201
179 181 183 179 174 172 159 130 107 87 76 94 134 175 180 177 175 168 168 159 155 156 166 172 163 158 164 155 147 147 150 205 311 4 29 55 148 180 201 202 199 194 197
190 182 177 175 172 169 156 153 154 161 175 199 191 191 186 174 174 173 170 168 166 165 175 185 175 163 156 168 159 151 158 155 161 248 338 359 22 202 207 199 190 195 199
184 177 174 168 174 173 167 168 165 169 181 171 154 167 186 180 184 185 181 174 175 177 184 188 172 170 170 174 173 160 144 128 159 180 241 282 323 274 230 218 202 205 205
176 173 171 171 183 177 172 172 175 177 175 166 174 184 198 201 201 201 192 189 190 188 192 194 187 182 186 184 185 179 173 175 186 184 211 242 258 273 244 224 212 213 212
Height
1502 1501 1501 1500 1500 1500 1500 1499 1499 1499 1499 1499 1499 1499 1500 1500 1501 1502 1503 1505 1506 1508 1510 1513 1515 1518 1522 1525 1528 1531 1535 1538 1540 1543 1545 1548 1550 1552 1554 1556 1557 1559 1560
1503 1502 1502 1502 1502 1501 1501 1501 1501 1501 1501 1501 1501 1501 1502 1502 1503 1504 1505 1507 1508 1510 1512 1514 1517 1520 1523 1526 1530 1533 1536 1539 1542 1544 1547 1549 1552 1554 1556 1557 1559 1560 1562
1504 1504 1504 1504 1504 1504 1503 1503 1503 1503 1503 1503 1503 1502 1503 1504 1505 1506 1507 1508 1510 1512 1514 1516 1519 1521 1524 1528 1531 1535 1538 1541 1543 1546 1548 1551 1553 1555 1557 1559 1560 1562 1563
1505 1505 1505 1505 1506 1506 1506 1506 1506 1505 1505 1505 1504 1503 1503 1505 1506 1508 1509 1510 1512 1514 1516 1518 1521 1524 1527 1530 1533 1536 1539 1542 1545 1547 1550 1553 1555 1557 1559 1560 1562 1564 1565
1507 1507 1507 1507 1507 1507 1507 1508 1508 1507 1507 1507 1505 1504 1505 1507 1508 1510 1511 1513 1515 1517 1519 1520 1522 1525 1529 1532 1535 1538 1541 1544 1546 1549 1551 1554 1556 1558 1560 1562 1564 1565 1567
1508 1509 1509 1509 1509 1509 1509 1509 1509 1509 1509 1508 1508 1508 1508 1509 1510 1512 1513 1515 1517 1518 1520 1521 1523 1526 1530 1534 1537 1540 1542 1545 1547 1550 1553 1555 1558 1560 1561 1563 1565 1567 1568
1510 1510 1510 1510 1510 1510 1511 1511 1511 1511 1511 1510 1510 1510 1510 1511 1512 1514 1515 1517 1519 1520 1521 1523 1525 1528 1532 1535 1538 1541 1543 1546 1548 1552 1554 1557 1559 1561 1563 1565 1566 1568 1569
1512 1512 1512 1512 1512 1512 1512 1512 1513 1513 1513 1513 1513 1512 1512 1513 1514 1515 1517 1519 1521 1522 1524 1525 1527 1530 1533 1536 1540 1543 1545 1547 1550 1553 1556 1558 1560 1562 1564 1566 1567 1569 1570
1513 1513 1513 1513 1513 1514 1514 1513 1514 1515 1515 1515 1515 1515 1515 1514 1515 1517 1520 1522 1524 1525 1526 1528 1531 1534 1537 1539 1542 1545 1547 1549 1552 1555 1557 1559 1561 1563 1565 1566 1568 1569 1571
1515 1515 1515 1515 1515 1515 1516 1516 1516 1517 1517 1517 1517 1517 1517 1517 1517 1519 1522 1525 1527 1529 1530 1532 1535 1537 1540 1542 1545 1547 1549 1551 1554 1556 1559 1561 1562 1564 1566 1567 1568 1570 1571
1516 1516 1516 1517 1517 1517 1518 1518 1519 1519 1519 1520 1520 1520 1520 1521 1521 1523 1526 1529 1530 1532 1534 1536 1538 1541 1543 1545 1547 1549 1551 1554 1556 1558 1560 1562 1563 1565 1566 1568 1569 1570 1572
1516 1517 1518 1518 1519 1519 1519 1520 1520 1521 1521 1522 1522 1523 1523 1524 1526 1528 1530 1532 1534 1536 1538 1540 1542 1544 1546 1548 1550 1552 1554 1555 1557 1559 1561 1563 1564 1566 1567 1568 1570 1571 1572
1518 1518 1519 1519 1520 1521 1521 1522 1523 1523 1524 1524 1525 1526 1527 1528 1530 1531 1533 1535 1537 1539 1541 1543 1545 1546 1548 1550 1552 1553 1555 1557 1559 1560 1562 1563 1565 1566 1568 1569 1570 1571 1572
1518 1519 1520 1520 1521 1521 1522 1524 1524 1525 1526 1527 1528 1529 1530 1531 1533 1535 1536 1537 1539 1541 1543 1545 1547 1549 1551 1552 1554 1555 1557 1559 1560 1561 1563 1564 1565 1567 1568 1569 1570 1571 1572
1519 1520 1520 1521 1522 1523 1524 1525 1526 1527 1528 1529 1530 1531 1533 1534 1536 1537 1539 1540 1542 1544 1545 1547 1549 1551 1552 1554 1556 1557 1558 1560 1561 1563 1564 1565 1566 1567 1568 1569 1570 1571 1572
1519 1520 1521 1522 1523 1524 1525 1526 1528 1529 1530 1531 1532 1533 1535 1536 1538 1539 1541 1543 1544 1546 1547 1549 1551 1552 1554 1555 1557 1558 1559 1560 1562 1563 1564 1565 1566 1567 1568 1569 1570 1571 1571
1519 1520 1521 1522 1523 1524 1526 1527 1529 1530 1532 1533 1534 1535 1537 1538 1540 1541 1543 1544 1546 1547 1549 1550 1552 1554 1555 1556 1558 1559 1560 1561 1562 1563 1564 1565 1566 1567 1568 1569 1570 1570 1571
1519 1520 1521 1522 1523 1525 1527 1528 1530 1532 1533 1534 1535 1537 1538 1540 1541 1543 1544 1546 1547 1549 1550 1552 1553 1555 1556 1557 1558 1559 1561 1562 1562 1563 1564 1565 1566 1567 1568 1569 1569 1570 1570
1519 1520 1522 1523 1524 1526 1527 1529 1531 1533 1534 1535 1536 1538 1539 1541 1542 1544 1545 1547 1548 1550 1551 1553 1554 1555 1557 1558 1559 1560 1561 1562 1562 1563 1564 1565 1566 1567 1567 1568 1569 1569 1570
1520 1521 1522 1524 1525 1526 1528 1530 1531 1533 1534 1536 1537 1539 1540 1542 1543 1545 1546 1548 1549 1550 1552 1553 1554 1556 1557 1558 1559 1560 1561 1561 1562 1562 1563 1564 1565 1566 1567 1567 1568 1568 1568
1519 1521 1523 1524 1525 1527 1528 1530 1531 1533 1535 1536 1538 1539 1541 1542 1544 1545 1547 1548 1550 1551 1552 1553 1555 1556 1557 1558 1559 1559 1560 1561 1561 1562 1562 1563 1564 1565 1565 1566 1567 1567 1567
1519 1520 1522 1524 1525 1527 1529 1531 1532 1534 1535 1537 1538 1540 1541 1542 1544 1545 1547 1548 1550 1551 1552 1553 1554 1555 1556 1557 1558 1559 1559 1561 1561 1561 1561 1562 1563 1564 1564 1565 1565 1565 1566
1518 1520 1522 1523 1525 1527 1529 1531 1533 1534 1535 1537 1538 1539 1541 1542 1544 1545 1547 1548 1549 1551 1552 1553 1554 1555 1556 1557 1558 1559 1559 1559 1560 1561 1560 1561 1562 1562 1563 1563 1564 1564 1564
1517 1519 1521 1523 1525 1526 1528 1530 1532 1533 1535 1536 1538 1539 1541 1542 1544 1545 1546 1548 1549 1550 1551 1553 1553 1554 1555 1556 1557 1557 1559 1559 1559 1559 1560 1560 1560 1561 1561 1562 1562 1562 1563
1516 1518 1521 1523 1524 1526 1528 1529 1531 1533 1535 1536 1538 1539 1541 1542 1543 1544 1546 1547 1548 1549 1550 1551 1552 1553 1554 1555 1555 1556 1557 1557 1557 1558 1558 1558 1559 1559 1559 1560 1560 1560 1561
1515 1517 1520 1521 1523 1525 1527 1529 1531 1532 1534 1536 1537 1538 1540 1541 1542 1544 1545 1546 1547 1548 1549 1550 1551 1551 1552 1553 1554 1554 1555 1555 1556 1556 1556 1556 1556 1557 1557 1557 1558 1558 1558